CW8914 Weather Reports


time (UTC)temp
C
wind
direction
speed
KPH
gust
KPH
rain 1hr
cm
rain 24hr
cm
rain mn
cm
humidity
%
barometer
mb
20260502130620 -2 169 0.0 1.6 0.00 0.00 0.00 76 1023.2
20260502123636 -2 169 0.0 0.0 0.00 0.00 0.00 77 1023.2
20260502122640 -2 169 0.0 0.0 0.00 0.00 0.00 76 1023.0
20260502121624 -2 169 0.0 0.0 0.00 0.00 0.00 76 1023.2
20260502120619 -2 169 0.0 0.0 0.00 0.00 0.00 76 1023.1
20260502115625 -2 169 0.0 0.0 0.00 0.00 0.00 75 1023.0
20260502114629 -1 169 0.0 3.2 0.00 0.00 0.00 75 1023.2
20260502113632 -1 169 0.0 1.6 0.00 0.00 0.00 75 1023.2
20260502112639 -1 169 0.0 4.8 0.00 0.00 0.00 73 1023.2
20260502111623 -1 169 0.0 1.6 0.00 0.00 0.00 73 1023.2
20260502110646 -1 169 0.0 4.8 0.00 0.00 0.00 73 1023.2
20260502105650 -1 169 1.6 4.8 0.00 0.00 0.00 73 1023.3
20260502104632 -1 169 0.0 0.0 0.00 0.00 0.00 74 1023.4
20260502103620 -1 169 0.0 0.0 0.00 0.00 0.00 74 1023.4
20260502102625 -1 169 0.0 0.0 0.00 0.00 0.00 75 1023.4
20260502101630 -1 169 0.0 0.0 0.00 0.00 0.00 74 1023.2
20260502100632 -1 169 0.0 0.0 0.00 0.00 0.00 74 1023.4
20260502090617 -1 169 0.0 3.2 0.00 0.00 0.00 74 1023.1
20260502070636 0 169 1.6 3.2 0.00 0.00 0.00 71 1023.5
20260502065623 0 169 0.0 3.2 0.00 0.00 0.00 71 1023.4
20260502064627 0 169 0.0 3.2 0.00 0.00 0.00 70 1023.3
20260502063629 0 169 0.0 3.2 0.00 0.00 0.00 70 1023.2
20260502062633 0 169 0.0 1.6 0.00 0.00 0.00 68 1023.3
20260502061621 0 169 0.0 3.2 0.00 0.00 0.00 69 1023.2
20260502060618 0 169 1.6 3.2 0.00 0.00 0.00 69 1023.2
20260502055623 0 169 1.6 3.2 0.00 0.00 0.00 68 1023.2
20260502054626 0 169 0.0 0.0 0.00 0.00 0.00 69 1023.2
20260502053649 0 169 0.0 1.6 0.00 0.00 0.00 66 1023.2
20260502052633 0 169 0.0 1.6 0.00 0.00 0.00 65 1023.2
20260502051655 0 169 0.0 1.6 0.00 0.00 0.00 64 1023.2
20260502050619 1 169 1.6 1.6 0.00 0.00 0.00 63 1023.2
20260502045623 1 169 0.0 1.6 0.00 0.00 0.00 62 1023.2
20260502044646 1 169 0.0 1.6 0.00 0.00 0.00 61 1023.2
20260502043629 1 169 0.0 1.6 0.00 0.00 0.00 59 1023.2
20260502042631 1 169 0.0 3.2 0.00 0.00 0.00 57 1023.0
20260502041656 2 169 0.0 1.6 0.00 0.00 0.00 55 1023.2
20260502040618 2 169 1.6 3.2 0.00 0.00 0.00 54 1023.0
20260502035621 2 169 0.0 0.0 0.00 0.00 0.00 53 1022.9
20260502034625 2 169 0.0 3.2 0.00 0.00 0.00 52 1022.9
20260502033628 3 169 0.0 0.0 0.00 0.00 0.00 50 1022.7
20260502032635 3 169 0.0 1.6 0.00 0.00 0.00 48 1022.6
20260502031618 4 169 0.0 1.6 0.00 0.00 0.00 46 1022.4
20260502030621 5 169 0.0 1.6 0.00 0.00 0.00 44 1022.4
20260502025622 5 169 0.0 1.6 0.00 0.00 0.00 42 1022.2
20260502024629 6 169 0.0 0.0 0.00 0.00 0.00 40 1022.1
20260502023633 6 169 0.0 1.6 0.00 0.00 0.00 39 1021.9
20260502022617 7 169 0.0 3.2 0.00 0.00 0.00 36 1021.8
20260502021620 8 169 1.6 4.8 0.00 0.00 0.00 34 1021.7
20260502020628 8 169 1.6 3.2 0.00 0.00 0.00 30 1021.7
20260502015651 9 169 1.6 3.2 0.00 0.00 0.00 29 1021.7
20260502014632 10 169 1.6 3.2 0.00 0.00 0.00 30 1021.6
20260502013633 10 169 1.6 3.2 0.00 0.00 0.00 28 1021.5
20260502012637 10 169 4.8 4.8 0.00 0.00 0.00 27 1021.6
20260502011626 11 173 4.8 6.4 0.00 0.00 0.00 26 1021.5
20260502010630 11 177 3.2 6.4 0.00 0.00 0.00 25 1021.5
20260502005618 11 92 1.6 6.4 0.00 0.00 0.00 25 1021.5
20260502004622 11 103 1.6 4.8 0.00 0.00 0.00 30 1021.4
20260502003624 11 110 6.4 11.3 0.00 0.00 0.00 24 1021.5
20260502002631 11 185 4.8 8.0 0.00 0.00 0.00 24 1021.5
20260502001634 11 78 4.8 12.9 0.00 0.00 0.00 26 1021.5
20260502000631 12 80 4.8 9.7 0.00 0.00 0.00 24 1021.5
20260501235633 12 77 3.2 6.4 0.00 0.00 0.00 23 1021.5
20260501234619 12 76 1.6 6.4 0.00 0.00 0.00 22 1021.6
20260501233621 12 82 1.6 9.7 0.00 0.00 0.00 21 1021.7
20260501232642 11 175 3.2 12.9 0.00 0.00 0.00 23 1021.5
20260501231626 11 36 3.2 6.4 0.00 0.00 0.00 20 1021.6
20260501230651 11 327 3.2 9.7 0.00 0.00 0.00 21 1021.7
20260501225654 11 174 4.8 9.7 0.00 0.00 0.00 24 1021.7
20260501224641 11 80 4.8 11.3 0.00 0.00 0.00 25 1021.7
20260501223621 11 105 1.6 11.3 0.00 0.00 0.00 24 1021.9
20260501222626 10 175 3.2 9.7 0.00 0.00 0.00 27 1022.0
20260501221630 10 136 8.0 14.5 0.00 0.00 0.00 29 1022.0
20260501220618 10 76 4.8 11.3 0.00 0.00 0.00 26 1022.2
20260501215624 10 91 4.8 9.7 0.00 0.00 0.00 25 1022.2
20260501214650 10 86 4.8 12.9 0.00 0.00 0.00 29 1022.3
20260501213626 10 167 6.4 9.7 0.00 0.00 0.00 28 1022.4
20260501212651 10 85 4.8 8.0 0.00 0.00 0.00 27 1022.5
20260501211618 10 30 4.8 9.7 0.00 0.00 0.00 26 1022.5
20260501210622 10 83 3.2 17.7 0.00 0.00 0.00 27 1022.5
20260501205649 10 138 4.8 12.9 0.00 0.00 0.00 29 1022.5
20260501204631 9 85 4.8 11.3 0.00 0.00 0.00 28 1022.6
20260501203633 9 163 6.4 11.3 0.00 0.00 0.00 31 1022.6
20260501202619 8 286 6.4 14.5 0.00 0.00 0.00 33 1022.5
20260501201621 8 114 4.8 9.7 0.00 0.00 0.00 30 1022.6
20260501200625 8 203 4.8 11.3 0.00 0.00 0.00 32 1022.7
20260501195629 8 136 4.8 11.3 0.00 0.00 0.00 33 1022.7
20260501194651 8 112 8.0 12.9 0.00 0.00 0.00 33 1022.8
20260501193657 8 209 4.8 12.9 0.00 0.00 0.00 33 1022.7
20260501192616 8 148 6.4 14.5 0.00 0.00 0.00 34 1022.8
20260501191621 8 165 8.0 12.9 0.00 0.00 0.00 34 1022.7
20260501190642 7 109 1.6 12.9 0.00 0.00 0.00 35 1022.8
20260501185624 7 108 4.8 12.9 0.00 0.00 0.00 37 1022.8
20260501184653 7 205 3.2 16.1 0.00 0.00 0.00 38 1022.9
20260501183636 7 110 4.8 6.4 0.00 0.00 0.00 39 1022.9
20260501182618 6 108 4.8 11.3 0.00 0.00 0.00 37 1023.0
20260501181621 7 97 6.4 11.3 0.00 0.00 0.00 39 1023.0
20260501180642 6 177 4.8 12.9 0.00 0.00 0.00 40 1023.0
20260501175623 6 114 6.4 12.9 0.00 0.00 0.00 40 1023.1
20260501174630 6 169 6.4 12.9 0.00 0.00 0.00 40 1023.1
20260501173633 6 80 6.4 14.5 0.00 0.00 0.00 41 1023.1
20260501171640 6 148 4.8 9.7 0.00 0.00 0.00 43 1023.2
20260501170620 5 115 4.8 9.7 0.00 0.00 0.00 41 1023.2
20260501165626 5 171 4.8 12.9 0.00 0.00 0.00 46 1023.1
20260501164627 5 94 4.8 16.1 0.00 0.00 0.00 46 1023.0
20260501163650 5 90 3.2 9.7 0.00 0.00 0.00 44 1023.0
20260501162632 5 142 3.2 9.7 0.00 0.00 0.00 49 1023.0
20260501161619 4 182 6.4 14.5 0.00 0.00 0.00 46 1022.8
20260501160624 4 163 4.8 11.3 0.00 0.00 0.00 48 1023.0
20260501155630 3 176 1.6 9.7 0.00 0.00 0.00 52 1023.0
20260501154651 3 134 3.2 11.3 0.00 0.00 0.00 52 1023.0
20260501153632 3 159 3.2 8.0 0.00 0.00 0.00 54 1023.0
20260501152617 3 163 4.8 11.3 0.00 0.00 0.00 56 1022.9
20260501151639 2 144 3.2 4.8 0.00 0.00 0.00 59 1022.8
20260501150621 1 144 1.6 3.2 0.00 0.00 0.00 65 1022.8
20260501145643 0 144 0.0 0.0 0.00 0.00 0.00 72 1022.8
20260501144646 0 144 0.0 0.0 0.00 0.00 0.00 79 1022.6
20260501143629 0 144 0.0 0.0 0.00 0.00 0.00 82 1022.7
20260501142617 -1 144 1.6 3.2 0.00 0.00 0.00 83 1022.7